Regional Weather Roundup
Issued by NWS

Home | Current Version | Previous Version | Text Only | Print | Product List | Glossary Off
Versions: 1 2 3 4 5 6 7 8 9 10 11 12 13 14 15 16 17 18 19 20 21 22 23 24 25 26 27 28 29 30 31 32 33 34 35 36 37 38 39 40 41 42 43 44 45 46 47 48 49 50

000
ASUS43 KLOT 110407
RWRIL

ILLINOIS REGIONAL WEATHER ROUNDUP
NATIONAL WEATHER SERVICE CHICAGO/ROMEOVILLE IL
1000 PM CST SAT DEC 10 2016

NOTE: "FAIR" INDICATES FEW OR NO CLOUDS BELOW 12,000 FEET WITH NO
SIGNIFICANT WEATHER AND/OR OBSTRUCTIONS TO VISIBILITY.

* THESE STATIONS ARE NOT UNDER NWS QUALITY CONTROL. THEY ALSO MAY NOT
  REPORT WEATHER SUCH AS PRECIPITATION OR FOG.

ILZ001-002-007-009-015-016-024-110500-
NORTHWEST ILLINOIS

CITY           SKY/WX    TMP DP  RH WIND       PRES   REMARKS
MOLINE         CLOUDY    25  19  78 SE13      30.19F WCI  14
STERLING*      FLURRIES  23  20  88 SE14      30.23F WCI  11
SAVANNA*       CLOUDY    23  20  86 SE9       30.22F WCI  13
$$

ILZ003-004-008-010-011-017-018-110500-
NORTH CENTRAL ILLINOIS

CITY           SKY/WX    TMP DP  RH WIND       PRES   REMARKS
ROCKFORD       LGT SNOW  22  19  89 SE12      30.28S FOG     WCI  10
FREEPORT*      CLOUDY    21  19  91 SE10      30.26S WCI  10
ROCHELLE*      CLOUDY    23  20  90 SE15      30.26F WCI  10
DE KALB*       FLURRIES  22  20  93 SE10      30.27S WCI  11
$$

ILZ005-006-012>014-019>023-110500-
NORTHEAST ILLINOIS

CITY           SKY/WX    TMP DP  RH WIND       PRES   REMARKS
CHICAGO-OHARE  LGT SNOW  22  19  89 SE10      30.29F FOG     WCI  11
CHICAGO-MIDWAY LGT SNOW  23  19  85 SE8       30.31F FOG     WCI  14
AURORA         LGT SNOW  23  20  88 SE12      30.29F FOG     WCI  12
LANSING*       LGT SNOW  23  22  98 SE6       30.33F WCI  16
JOLIET*        LGT SNOW  25  23  91 SE6       30.31F WCI  18
WAUKEGAN       LGT SNOW  22  19  89 S6        30.29F FOG     WCI  14
DUPAGE AIRPORT LGT SNOW  22  18  85 SE8       30.28F FOG     WCI  12
KANKAKEE*      LGT SNOW  24  22  89 SE8       30.33F WCI  16
WHEELING       LGT SNOW  22  19  89 SE7       30.32F FOG     WCI  13
MORRIS*        MIX PCPN  24  21  88 SE12      30.29F WCI  13
ROMEOVILLE*    LGT SNOW  23  23 100 S10       30.30F WCI  12
NORTHERLY ISL    N/A     23  21  92 S8          N/A  WCI  14
$$

LMZ740>746-110500-
SOUTHERN LAKE MICHIGAN

STATION/POSITION SKY/WX   TEMP    WIND        PRES    VSBY  WAVE
                          AIR SEA DIR/SP/G                  HT/PER
                          (F)     (DEG/KT/KT) (MB)    (MI)  (FT/S)
BURNHAM HARBOR             23     150/  8/  9   N/A
CALUMET HARBOR             23     150/  6/ 10 1026.2F
BURNS HARBOR               24     170/  9/ 12 1027.8F
$$

ILZ025>027-034>036-040-047-049-050-058-095>099-110500-
WEST-CENTRAL ILLINOIS

CITY           SKY/WX    TMP DP  RH WIND       PRES   REMARKS
QUINCY         CLOUDY    31  20  63 SE13      30.14F WCI  21
GALESBURG*     CLOUDY    26  21  83 E9        30.18F WCI  16
MACOMB*        CLOUDY    29  22  73 SE16      30.19F WCI  18
JACKSONVILLE*  CLOUDY    32  19  59 SE13G20   30.20F WCI  22
PITTSFIELD*    CLOUDY    32  22  66 SE9       30.18F WCI  24
$$

ILZ028>032-037-038-041>044-048-051>054-059>061-110500-
CENTRAL ILLINOIS

CITY           SKY/WX    TMP DP  RH WIND       PRES   REMARKS
PONTIAC        CLOUDY    26  25  98 SE16      30.29F WCI  13
BLOOMINGTON    FLURRIES  25  22  88 SE21      30.25F WCI  11
DECATUR        CLOUDY    29  19  66 SE15      30.26F WCI  18
PEORIA         CLOUDY    27  22  81 SE9       30.24F WCI  18
LACON*         CLOUDY    25  22  88 SE13      30.24F WCI  14
LINCOLN*       CLOUDY    30  22  70 SE10G17   30.25F WCI  21
SPRINGFIELD    CLOUDY    32  20  61 SE13      30.23F WCI  22
TAYLORVILLE    CLOUDY    30  21  67 SE13G18   30.25F WCI  20
$$

ILZ033-039-045-046-055>057-062-063-110500-
EAST-CENTRAL ILLINOIS

CITY           SKY/WX    TMP DP  RH WIND       PRES   REMARKS
CHAMPAIGN      LGT SNOW  26  22  84 SE14      30.31F VSB 1   WCI  14
RANTOUL*       LGT SNOW  27  25  92 S12       30.32F WCI  17
MATTOON        CLOUDY    29  17  61 SE8       30.31R WCI  21
PARIS*         FLURRIES  28  21  75 SE5       30.36R WCI  23
$$

ILZ079-100>102-110500-
SOUTHWEST ILLINOIS

CITY           SKY/WX    TMP DP  RH WIND       PRES   REMARKS
ALTON          CLOUDY    32  21  64 SE14      30.23F WCI  22
BELLEVILLE     CLOUDY    34  21  58 SE10      30.23F WCI  26
CAHOKIA*       CLOUDY    35  20  54 S12G21    30.23F WCI  27
SPARTA*        CLOUDY    34  20  57 SE8       30.27F WCI  27
$$

ILZ064>066-069>071-074>076-080>082-084>086-088>090-092>094-110500-
SOUTH-CENTRAL ILLINOIS

CITY           SKY/WX    TMP DP  RH WIND       PRES   REMARKS
CARBONDALE     CLOUDY    36  18  48 S9        30.31F WCI  29
CAIRO*         CLOUDY    36  21  53 S5        30.34R WCI  32
EFFINGHAM*     CLOUDY    31  23  71 E8        30.31F WCI  24
MARION         CLOUDY    37  18  44 S9        30.32S WCI  31
CENTRALIA*     CLOUDY    33  22  64 SE8       30.28F WCI  26
SALEM*         CLOUDY    33  20  59 SE7       30.28F WCI  27
METROPOLIS*    CLOUDY    37  17  45 SE3       30.34F
$$

ILZ067-068-072-073-078-083-087-091-110500-
SOUTHEAST ILLINOIS

CITY           SKY/WX    TMP DP  RH WIND       PRES   REMARKS
LAWRENCEVILLE  CLOUDY    31  19  61 SE8       30.34F WCI  23
FLORA*         CLOUDY    32  22  65 SE9       30.31F WCI  25
FAIRFIELD*     CLOUDY    32  21  63 SE5       30.31F WCI  27
HARRISBURG*    CLOUDY    34  24  66 SE5       30.32F WCI  30
ROBINSON*      CLOUDY    30  20  66 SE7       30.35F WCI  23
CARMI*         CLOUDY    32  23  70 S9        30.32F WCI  24
$$

ABBREVIATIONS USED IN REMARKS
   TC - TEMPERATURE IN CELSIUS
  WCI - WIND CHILL INDEX
   HX - HEAT INDEX
  VSB - VISIBILITY
$$




USA.gov is the U.S. government's official web portal to all federal, state and local government web resources and services.